Location: Davidschlag
(48.4333°N, 14.2833°E)
Time: 19:40:08
(UTC+00:00)

STARLINK-81 - Pass Details

Date: 27 February 2020
Orbit: 529 x 530 km, 53.0° (Epoch: 03 April)

Event Time Altitude Azimuth Distance (km) Brightness Sun altitude
Rises 18:43:00 0° 288° (WNW) 2,670 8.7 -20.7°
Reaches altitude 10° 18:45:18 10° 294° (WNW) 1,780 7.3 -21.0°
Maximum altitude 18:49:12 46° 9° (N) 724 4.2 -21.7°
Enters shadow 18:49:29 45° 23° (NNE) 734 4.1 -21.7°
